EIN924D EIDW-DTMB

Flight info

Callsign EIN924D
Flight time N/A
Altitude 33000
Route PESIT2J PESIT DCT EKRAS DCT MOLEN DCT MTG DCT DOPEL UG869 TBK UV334 LABIP V334 MAGIM UV334 PERAM V334 RIVIN BAROG1R
Aircraft A321/M-SDE3FGHIRWY/LB1

Departure

Time N/A
Airport Dublin Airport (EIDW)

Arrival

Time 2026-05-07 15:07
Airport Monastir Habib Bourguiba International Airport (DTMB)
Time Latitude Longitude Altitude Speed Heading
2026-05-07 14:28 38.45210 8.88350 34905 ft 382 kts 192°
2026-05-07 14:28 38.39882 8.88336 34907 ft 383 kts 191°
2026-05-07 14:29 38.34548 8.88346 34906 ft 383 kts 191°
2026-05-07 14:29 38.29214 8.88351 34901 ft 383 kts 191°
2026-05-07 14:30 38.23883 8.88353 34906 ft 383 kts 191°
2026-05-07 14:30 38.18587 8.88353 34905 ft 383 kts 191°
2026-05-07 14:31 38.13261 8.88356 34911 ft 382 kts 191°
2026-05-07 14:31 38.07947 8.88362 34911 ft 382 kts 191°
2026-05-07 14:32 38.02640 8.88359 34906 ft 381 kts 191°
2026-05-07 14:32 37.97344 8.88355 34904 ft 381 kts 191°
2026-05-07 14:33 37.92044 8.88350 34895 ft 380 kts 191°
2026-05-07 14:33 37.86745 8.88350 34895 ft 380 kts 191°
2026-05-07 14:34 37.81451 8.88356 34892 ft 380 kts 191°
2026-05-07 14:34 37.76160 8.88362 34889 ft 381 kts 191°
2026-05-07 14:35 37.70860 8.88361 34886 ft 381 kts 191°
2026-05-07 14:35 37.65591 8.88361 34877 ft 381 kts 191°
2026-05-07 14:36 37.60281 8.88361 34874 ft 382 kts 191°
2026-05-07 14:36 37.54962 8.88354 34875 ft 382 kts 191°
2026-05-07 14:37 37.49635 8.88360 34869 ft 383 kts 191°
2026-05-07 14:37 37.41621 8.88364 34872 ft 384 kts 191°
2026-05-07 14:38 37.36274 8.88372 34872 ft 385 kts 191°
2026-05-07 14:38 37.30909 8.88373 34873 ft 385 kts 191°
2026-05-07 14:39 37.25542 8.88361 34877 ft 386 kts 191°
2026-05-07 14:39 37.20164 8.88357 34881 ft 387 kts 191°
2026-05-07 14:40 37.14811 8.88358 34887 ft 387 kts 191°
2026-05-07 14:40 37.09415 8.88361 34895 ft 388 kts 191°
2026-05-07 14:41 37.04014 8.88351 34898 ft 389 kts 191°
2026-05-07 14:41 36.98573 8.88618 34904 ft 403 kts 181°
2026-05-07 14:42 36.95820 8.89588 34906 ft 421 kts 170°
2026-05-07 14:42 36.93133 8.91164 34905 ft 428 kts 167°
2026-05-07 14:42 36.87770 8.94434 34904 ft 429 kts 167°
2026-05-07 14:43 36.82395 8.97693 34899 ft 429 kts 167°
2026-05-07 14:43 36.77053 9.00926 34890 ft 430 kts 167°
2026-05-07 14:44 36.71672 9.04183 34886 ft 430 kts 166°
2026-05-07 14:44 36.66281 9.07445 34874 ft 431 kts 166°
2026-05-07 14:45 36.61801 9.10141 34861 ft 431 kts 166°
2026-05-07 14:45 36.56393 9.13382 34861 ft 431 kts 166°
2026-05-07 14:46 36.50980 9.16629 34695 ft 434 kts 166°
2026-05-07 14:46 36.48257 9.18257 34216 ft 434 kts 166°
2026-05-07 14:46 36.45526 9.19888 33331 ft 437 kts 165°
2026-05-07 14:47 36.42764 9.21532 32149 ft 446 kts 164°
2026-05-07 14:47 36.39937 9.23211 30965 ft 454 kts 163°
2026-05-07 14:47 36.37088 9.24906 29812 ft 461 kts 162°
2026-05-07 14:47 36.34196 9.26635 28736 ft 462 kts 161°
2026-05-07 14:48 36.31299 9.28378 27735 ft 462 kts 161°
2026-05-07 14:48 36.28401 9.30116 26673 ft 463 kts 161°
2026-05-07 14:48 36.25494 9.31849 25651 ft 465 kts 161°
2026-05-07 14:48 36.22602 9.33575 24995 ft 458 kts 161°
2026-05-07 14:49 36.19736 9.35284 24242 ft 455 kts 161°
2026-05-07 14:49 36.16888 9.36976 23521 ft 453 kts 161°
2026-05-07 14:49 36.14058 9.38653 22699 ft 449 kts 160°
2026-05-07 14:49 36.11394 9.40709 21911 ft 456 kts 146°
2026-05-07 14:50 36.09139 9.43493 21156 ft 458 kts 139°
2026-05-07 14:50 36.06985 9.46369 20413 ft 454 kts 138°
2026-05-07 14:50 36.04861 9.49227 19696 ft 450 kts 138°
2026-05-07 14:50 36.02754 9.52069 18991 ft 446 kts 138°
2026-05-07 14:51 36.00668 9.54884 18300 ft 442 kts 137°
2026-05-07 14:51 35.98601 9.57668 17538 ft 438 kts 138°
2026-05-07 14:51 35.96553 9.60414 16788 ft 432 kts 137°
2026-05-07 14:51 35.94540 9.63110 16274 ft 421 kts 137°
2026-05-07 14:52 35.92604 9.65699 15785 ft 411 kts 137°
2026-05-07 14:52 35.90660 9.68291 15285 ft 402 kts 137°
2026-05-07 14:52 35.88806 9.70763 14819 ft 394 kts 137°
2026-05-07 14:52 35.86964 9.73218 14438 ft 385 kts 137°
2026-05-07 14:53 35.85168 9.75614 14094 ft 376 kts 136°
2026-05-07 14:53 35.83408 9.77960 13740 ft 368 kts 136°
2026-05-07 14:53 35.81819 9.80401 13359 ft 365 kts 122°
2026-05-07 14:53 35.80950 9.83322 12965 ft 364 kts 105°
2026-05-07 14:54 35.80672 9.86410 12576 ft 363 kts 88°
2026-05-07 14:54 35.81158 9.89457 12201 ft 364 kts 75°
2026-05-07 14:54 35.81898 9.92437 11839 ft 363 kts 73°
2026-05-07 14:54 35.82657 9.95396 11465 ft 361 kts 73°
2026-05-07 14:55 35.83415 9.98336 11098 ft 357 kts 73°
2026-05-07 14:55 35.84164 10.01227 10789 ft 349 kts 73°
2026-05-07 14:55 35.84895 10.04044 10549 ft 340 kts 73°
2026-05-07 14:55 35.85608 10.06779 10312 ft 331 kts 73°
2026-05-07 14:56 35.86294 10.09414 10074 ft 324 kts 73°
2026-05-07 14:56 35.86981 10.12040 9843 ft 320 kts 73°
2026-05-07 14:56 35.87664 10.14646 9591 ft 319 kts 73°
2026-05-07 14:56 35.88343 10.17245 9336 ft 318 kts 73°
2026-05-07 14:57 35.89018 10.19836 8937 ft 315 kts 73°
2026-05-07 14:57 35.89386 10.22443 8418 ft 304 kts 96°
2026-05-07 14:57 35.88894 10.24862 7943 ft 290 kts 122°
2026-05-07 14:57 35.87644 10.26693 7452 ft 273 kts 150°
2026-05-07 14:58 35.85995 10.27733 6976 ft 263 kts 162°
2026-05-07 14:58 35.84302 10.28555 6496 ft 259 kts 163°
2026-05-07 14:58 35.82631 10.29335 6004 ft 255 kts 163°
2026-05-07 14:58 35.80975 10.30085 5507 ft 253 kts 163°
2026-05-07 14:59 35.79332 10.30809 5212 ft 248 kts 163°
2026-05-07 14:59 35.77720 10.31506 5085 ft 242 kts 163°
2026-05-07 14:59 35.76140 10.32189 4967 ft 240 kts 163°
2026-05-07 14:59 35.74568 10.32861 4839 ft 239 kts 163°
2026-05-07 15:00 35.72995 10.33535 4728 ft 238 kts 163°
2026-05-07 15:00 35.71523 10.34346 4600 ft 232 kts 144°
2026-05-07 15:00 35.70552 10.35918 4489 ft 235 kts 113°
2026-05-07 15:00 35.70084 10.37838 4362 ft 234 kts 105°
2026-05-07 15:01 35.69705 10.39763 4172 ft 234 kts 103°
2026-05-07 15:01 35.69350 10.41703 3974 ft 232 kts 103°
2026-05-07 15:01 35.68998 10.43632 3780 ft 230 kts 103°
2026-05-07 15:01 35.68729 10.45556 3608 ft 228 kts 89°
2026-05-07 15:02 35.69020 10.47408 3498 ft 215 kts 73°
2026-05-07 15:02 35.69442 10.49126 3366 ft 204 kts 73°
2026-05-07 15:02 35.69841 10.50762 3248 ft 196 kts 73°
2026-05-07 15:02 35.70226 10.52349 3154 ft 192 kts 73°
2026-05-07 15:03 35.70606 10.53917 3065 ft 190 kts 73°
2026-05-07 15:03 35.70983 10.55473 2979 ft 189 kts 73°
2026-05-07 15:03 35.71354 10.57009 2785 ft 185 kts 73°
2026-05-07 15:03 35.71716 10.58507 2548 ft 180 kts 73°
2026-05-07 15:04 35.71836 10.59003 2483 ft 177 kts 73°
2026-05-07 15:04 35.72753 10.62801 1893 ft 153 kts 73°
2026-05-07 15:04 35.73046 10.64019 1697 ft 144 kts 73°
2026-05-07 15:05 35.73330 10.65194 1493 ft 143 kts 74°
2026-05-07 15:05 35.73611 10.66360 1307 ft 140 kts 75°
2026-05-07 15:05 35.73885 10.67498 1119 ft 140 kts 74°
2026-05-07 15:05 35.74161 10.68647 931 ft 140 kts 73°
2026-05-07 15:06 35.74439 10.69803 752 ft 140 kts 73°
2026-05-07 15:06 35.74718 10.70958 550 ft 141 kts 73°
2026-05-07 15:06 35.75003 10.72106 338 ft 139 kts 71°
2026-05-07 15:06 35.75273 10.73265 140 ft 141 kts 72°
2026-05-07 15:07 35.75550 10.74406 19 ft 134 kts 72°
2026-05-07 15:07 35.75727 10.75154 22 ft 49 kts 73°
2026-05-07 15:07 35.75795 10.75428 20 ft 22 kts 68°
2026-05-07 15:07 35.75877 10.75457 18 ft 9 kts 344°
2026-05-07 15:08 35.75934 10.75456 17 ft 8 kts 40°
2026-05-07 15:08 35.75954 10.75516 17 ft 7 kts 72°
2026-05-07 15:08 35.75958 10.75528 17 ft 0 kts 73°
2026-05-07 15:08 35.75969 10.75544 17 ft 6 kts 32°
2026-05-07 15:09 35.76021 10.75534 18 ft 5 kts 344°
2026-05-07 15:09 35.76029 10.75531 17 ft 1 kts 343°
2026-05-07 15:09 35.76034 10.75529 17 ft 1 kts 343°
2026-05-07 15:09 35.76035 10.75529 17 ft 0 kts 343°